sat.trackr.live / text

‹ back to catalog

STARLINK-34860

NORAD 65357 · 2025-190G

PAYLOAD ACTIVE UNKNOWN

§ Identity

Operator
Country
US
Launch date
2025-08-28
Launch site
AFETR
Launch vehicle
Mass (kg)
RCS (m²)

Purposes: comms

External: N2YO · Heavens-Above · Gunter

§ Orbital elements

Epoch: 2026-05-25T02:28:21.018720Z

Period
94.10 min
Inclination
53.1572°
Eccentricity
0.0001245
Mean motion
15.30206054 rev/d
Perigee alt
474.3 km
Apogee alt
476.1 km
Semi-major
6,853.3 km
B*
3.4432e-4
RAAN
173.3065°
Arg perigee
91.7931°
Mean anomaly
268.3212°
Rev number
4,098

§ Raw data

STARLINK-348601 65357U 25190G   26145.10302105  .00009854  00000+0  34432-3 0  99972 65357  53.1572 173.3065 0001245  91.7931 268.3212 15.30206054 40989

JSON: /api/v1/satellites/65357 · /tle

For live sub-satellite position, see the globe view (requires WebGL).

§ Visibility from observer

Set your observer location to see the next 7 days of passes ≥ 10°. The values pass through the URL so the page stays shareable.

No JS? Fill the form by hand. The geolocation button needs JavaScript.